Probability
0 0 3 0 3 0 0 0 0 0 0 0 0 0 0 0 0 0 0 0 0 0 0 0 0 0 0 0 0 0 0 0 0 0 0 0 0 0 0 0 0 0 0
0 0 3 0 3 3 0 0 0 0 0 0 0 0 0 0 0 0 0 0 0 0 0 0 0 0 0 0 0 0 0 0 0 0 0 0 0 0 0 0 0 0 0
0 0 0 0 0 3 0 0 0 0 0 0 0 0 0 0 0 0 0 0 0 0 0 0 0 0 0 0 0 0 0 0 0 0 0 0 0 0 0 0 0 0 0
0 0 0 0 0 0 3 0 0 0 0 0 0 0 0 0 0 0 0 0 0 0 0 0 0 0 0 0 0 0 0 0 0 0 0 0 0 0 0 0 0 0 0
0 0 0 3 3 0 0 0 0 0 0 0 0 0 0 0 0 0 0 0 0 0 0 0 0 0 0 0 0 0 0 0 0 0 0 0 0 0 0 0 0 0 0
0 0 0 3 3 0 0 0 0 0 0 0 0 0 0 0 0 0 0 0 0 0 0 0 0 0 0 0 0 0 0 0 0 0 0 0 0 0 0 0 0 0 0
0 0 0 3 3 3 0 0 3 0 0 0 0 0 0 0 0 0 0 0 0 0 0 0 0 0 0 0 0 0 0 0 0 0 0 0 0 0 0 0 0 0 0
0 0 0 3 3 3 3 0 0 0 0 0 0 0 0 0 0 0 0 0 0 0 0 0 0 0 0 0 0 0 0 0 0 0 0 0 0 0 0 0 0 0 0
0 0 0 0 3 3 3 3 0 0 0 0 0 0 0 0 0 0 0 0 0 0 0 0 0 0 0 0 0 0 0 0 0 0 0 0 0 0 0 0 0 0 0
0 0 0 0 3 3 3 3 3 0 0 0 0 0 0 0 0 0 0 0 0 0 0 0 0 0 0 0 0 0 0 0 0 0 0 0 0 0 0 0 0 0 0
0 0 0 0 3 3 3 0 3 0 0 0 0 0 0 0 0 0 0 0 0 0 0 0 0 0 0 0 0 0 0 0 0 0 0 0 0 0 0 0 0 0 0
0 0 0 0 0 0 0 0 0 0 0 0 0 0 0 0 0 0 0 0 0 0 0 0 0 0 0 0 0 0 0 0 0 0 0 0 0 0 0 0 0 0 0
0 0 0 0 0 0 0 0 0 0 0 0 0 0 0 0 0 0 0 0 0 0 0 0 0 0 0 0 0 0 0 0 0 0 0 0 0 0 0 0 0 0 0
0 0 0 0 0 0 0 0 0 0 0 0 0 0 0 0 0 0 0 0 0 0 0 0 0 0 0 0 0 0 0 0 0 0 0 0 0 0 0 0 0 0 0
0 0 0 0 0 0 0 0 0 0 0 0 0 0 0 0 0 0 0 0 0 0 0 0 0 0 0 0 0 0 0 0 0 0 0 0 0 0 0 0 0 0 0
0 0 0 0 0 0 0 0 0 0 0 0 0 0 0 0 0 0 0 0 0 0 0 0 0 0 0 0 0 0 0 0 0 0 0 0 0 0 0 0 0 0 0
0 0 0 0 0 0 0 0 0 0 0 0 0 0 0 0 0 0 0 0 0 0 0 0 0 0 0 0 0 0 0 0 0 0 0 0 0 0 0 0 0 0 0
0 0 0 0 0 0 0 0 0 0 0 0 0 0 0 0 0 0 0 0 0 0 0 0 0 0 0 0 0 0 0 0 0 0 0 0 0 0 0 0 0 0 0
0 0 0 0 0 0 0 0 0 0 0 0 0 0 0 0 0 0 0 0 0 0 0 0 0 0 0 0 0 0 0 0 0 0 0 0 0 0 0 0 0 0 0
0 0 0 0 0 0 0 0 0 0 0 0 0 0 0 0 0 0 0 0 0 0 0 0 0 0 0 0 0 0 0 0 0 0 0 0 0 0 0 0 0 0 0
0 0 0 0 0 0 0 0 0 0 0 0 0 0 0 0 0 0 0 0 0 0 0 0 0 0 0 0 0 0 0 0 0 0 0 0 0 0 0 0 0 0 0
0 0 0 0 0 0 0 0 0 0 0 0 0 0 0 0 0 0 0 0 0 0 0 0 0 0 0 0 0 0 0 0 0 0 0 0 0 0 0 0 0 0 0
0 0 0 0 0 0 0 0 0 0 0 0 0 0 0 0 0 0 0 0 0 0 0 0 0 0 0 0 0 0 0 0 0 0 0 0 0 0 0 0 0 0 0
0 0 0 0 0 0 0 0 0 0 0 0 0 0 0 0 0 0 0 0 0 0 0 0 0 0 0 0 0 0 0 0 0 0 0 0 0 0 0 0 0 0 0
0 0 0 0 0 0 0 0 0 0 0 0 0 0 0 0 0 0 0 0 0 0 0 0 0 0 0 0 0 0 0 0 0 0 0 0 0 0 0 0 0 0 0
0 0 0 0 0 0 0 0 0 0 0 0 0 0 0 0 0 0 0 0 0 0 0 0 0 0 0 0 0 0 0 0 0 0 0 0 0 0 0 0 0 0 0
Height
5869 5870 5870 5871 5872 5873 5873 5873 5874 5874 5874 5874 5874 5874 5874 5874 5873 5873 5873 5873 5872 5872 5871 5871 5870 5870 5869 5868 5867 5867 5866 5865 5864 5864 5863 5862 5861 5860 5859 5858 5857 5856 5855
5866 5867 5868 5869 5870 5870 5870 5871 5871 5872 5872 5872 5872 5872 5871 5871 5871 5871 5871 5871 5870 5870 5870 5869 5868 5868 5867 5867 5866 5865 5864 5864 5863 5862 5861 5860 5860 5858 5857 5856 5855 5854 5853
5864 5865 5866 5866 5867 5867 5868 5869 5869 5869 5869 5869 5869 5869 5869 5869 5869 5869 5868 5868 5868 5868 5867 5867 5867 5866 5866 5865 5864 5863 5863 5862 5861 5860 5860 5859 5857 5856 5855 5854 5853 5852 5851
5861 5862 5863 5864 5864 5865 5865 5866 5866 5866 5867 5867 5867 5867 5867 5867 5866 5866 5866 5866 5866 5865 5865 5865 5864 5864 5864 5863 5862 5861 5861 5860 5859 5858 5857 5857 5856 5855 5853 5852 5851 5850 5849
5859 5859 5860 5861 5861 5862 5863 5863 5863 5864 5864 5864 5864 5864 5864 5864 5864 5864 5863 5863 5863 5863 5863 5863 5862 5862 5862 5861 5860 5859 5858 5858 5857 5856 5855 5854 5853 5852 5851 5850 5849 5848 5846
5856 5857 5857 5858 5858 5859 5859 5860 5860 5860 5861 5861 5861 5862 5862 5862 5861 5861 5861 5861 5861 5861 5860 5860 5860 5859 5859 5858 5858 5857 5856 5855 5854 5853 5852 5852 5851 5850 5849 5847 5846 5845 5844
5854 5854 5854 5855 5855 5856 5856 5857 5857 5857 5858 5858 5858 5859 5859 5859 5859 5859 5859 5858 5858 5858 5858 5857 5857 5857 5856 5856 5855 5854 5853 5852 5852 5851 5850 5849 5848 5847 5846 5845 5843 5842 5841
5851 5851 5852 5852 5852 5853 5853 5854 5854 5854 5855 5855 5855 5856 5856 5856 5856 5856 5856 5856 5855 5855 5855 5854 5854 5854 5853 5853 5852 5851 5850 5850 5849 5848 5847 5846 5845 5844 5843 5842 5840 5839 5838
5848 5849 5849 5849 5849 5850 5851 5851 5851 5851 5852 5852 5852 5853 5853 5853 5853 5853 5853 5853 5852 5852 5852 5851 5851 5850 5850 5849 5849 5848 5847 5846 5845 5844 5843 5842 5841 5840 5839 5838 5837 5836 5834
5845 5846 5846 5846 5847 5847 5847 5848 5848 5848 5848 5849 5849 5849 5849 5850 5850 5850 5850 5849 5849 5849 5849 5848 5848 5847 5846 5846 5845 5844 5844 5843 5842 5841 5840 5839 5838 5836 5835 5834 5833 5832 5831
5843 5843 5843 5843 5843 5844 5844 5845 5845 5845 5845 5845 5846 5846 5846 5846 5847 5847 5846 5846 5846 5845 5845 5845 5844 5843 5843 5842 5841 5841 5840 5839 5838 5837 5836 5835 5834 5832 5831 5830 5829 5827 5826
5840 5840 5840 5840 5840 5840 5840 5841 5841 5841 5841 5842 5842 5842 5842 5842 5843 5843 5842 5842 5842 5842 5841 5841 5840 5839 5839 5838 5837 5837 5836 5835 5834 5833 5831 5830 5829 5828 5827 5826 5824 5823 5821
5837 5837 5837 5837 5837 5837 5837 5837 5837 5838 5838 5838 5838 5839 5839 5839 5839 5839 5839 5838 5838 5838 5837 5837 5836 5835 5834 5834 5833 5832 5832 5831 5830 5828 5827 5826 5825 5823 5822 5821 5819 5818 5816
5834 5834 5834 5833 5833 5833 5833 5833 5834 5834 5834 5834 5834 5835 5835 5835 5835 5835 5835 5834 5834 5834 5833 5832 5832 5831 5830 5830 5829 5828 5827 5826 5825 5824 5822 5821 5819 5818 5817 5815 5813 5812 5810
5830 5830 5830 5830 5829 5829 5830 5830 5830 5830 5830 5830 5830 5831 5831 5831 5831 5831 5830 5830 5830 5829 5829 5828 5827 5827 5826 5825 5824 5823 5822 5821 5820 5818 5817 5815 5814 5812 5811 5809 5807 5805 5803
5826 5826 5826 5825 5825 5825 5826 5826 5826 5826 5826 5826 5826 5827 5827 5827 5826 5826 5826 5825 5825 5824 5824 5823 5822 5821 5821 5820 5819 5818 5817 5816 5814 5813 5811 5809 5808 5806 5804 5802 5800 5798 5796
5822 5822 5821 5821 5821 5821 5821 5822 5822 5822 5822 5822 5822 5822 5822 5822 5822 5821 5821 5821 5820 5819 5819 5818 5817 5816 5815 5814 5813 5812 5811 5810 5808 5807 5805 5803 5801 5799 5797 5795 5793 5791 5788
5817 5817 5817 5817 5817 5817 5817 5817 5817 5817 5817 5817 5817 5818 5817 5817 5817 5817 5816 5816 5815 5814 5814 5813 5812 5811 5810 5809 5807 5806 5805 5803 5802 5800 5798 5797 5795 5792 5790 5788 5785 5783 5780
5812 5812 5812 5812 5812 5812 5813 5813 5813 5812 5813 5813 5813 5813 5813 5812 5812 5812 5811 5810 5810 5809 5808 5808 5806 5805 5804 5803 5802 5800 5799 5797 5795 5793 5791 5789 5787 5785 5782 5780 5777 5775 5772
5808 5807 5808 5808 5808 5808 5808 5808 5808 5808 5808 5808 5808 5808 5808 5807 5807 5806 5805 5805 5804 5803 5803 5802 5800 5799 5798 5797 5795 5794 5792 5790 5788 5786 5783 5781 5779 5776 5773 5771 5768 5765 5763
5803 5803 5803 5803 5803 5803 5803 5803 5803 5803 5803 5803 5803 5802 5802 5802 5801 5800 5799 5799 5798 5797 5796 5795 5794 5792 5791 5790 5788 5786 5785 5783 5780 5778 5775 5773 5770 5767 5764 5761 5758 5755 5753
5797 5797 5798 5798 5798 5798 5798 5798 5798 5798 5797 5797 5797 5797 5796 5795 5795 5794 5793 5792 5791 5790 5789 5788 5786 5785 5783 5782 5780 5778 5776 5774 5772 5769 5767 5764 5761 5758 5755 5751 5748 5745 5742
5792 5792 5792 5792 5792 5793 5793 5793 5792 5792 5792 5791 5791 5790 5790 5789 5788 5787 5786 5785 5784 5783 5781 5780 5779 5777 5775 5774 5771 5769 5767 5765 5762 5760 5757 5754 5751 5748 5744 5741 5738 5734 5732
5786 5786 5786 5786 5786 5787 5787 5787 5786 5786 5785 5785 5785 5784 5783 5782 5781 5780 5779 5778 5777 5775 5774 5772 5771 5769 5767 5765 5762 5760 5758 5755 5753 5750 5747 5744 5741 5737 5734 5730 5727 5724 5721
5779 5779 5779 5780 5780 5780 5780 5780 5779 5779 5778 5778 5777 5776 5776 5774 5774 5772 5771 5770 5769 5767 5765 5764 5762 5760 5758 5756 5753 5751 5748 5746 5743 5740 5737 5734 5730 5727 5723 5719 5716 5713 5709
5771 5772 5772 5772 5773 5773 5773 5772 5772 5771 5770 5770 5769 5768 5767 5767 5766 5765 5764 5762 5760 5758 5756 5755 5753 5751 5749 5746 5744 5741 5738 5736 5733 5729 5726 5723 5719 5716 5712 5708 5705 5701 5698
Wind_Speed
9 9 9 10 10 9 9 8 8 8 9 8 8 9 9 10 9 9 8 7 7 7 7 7 6 6 6 6 6 6 6 6 6 7 7 7 7 8 8 8 8 8 8
8 8 9 10 10 10 9 9 9 9 9 9 9 9 9 9 9 9 9 8 8 7 8 8 7 6 7 7 7 7 7 7 7 7 7 8 9 8 8 8 8 9 9
9 8 9 9 10 10 10 10 10 10 10 10 10 9 9 9 10 10 10 9 9 8 8 8 8 7 7 7 7 8 8 8 8 8 8 8 9 9 9 8 8 9 9
9 9 9 9 9 10 10 11 11 11 11 10 10 9 10 10 10 10 10 9 9 9 9 9 9 8 7 7 8 8 8 9 9 9 9 9 9 8 8 9 9 10 10
9 9 9 9 10 10 11 11 11 11 11 11 10 10 10 10 10 10 9 9 9 9 10 10 9 8 8 8 8 8 9 9 10 10 9 9 9 9 10 10 10 11 11
8 9 9 9 10 10 10 10 10 11 12 11 11 11 11 10 10 10 10 10 10 10 10 10 10 10 9 10 10 10 10 10 10 10 10 10 10 10 11 11 11 11 11
8 8 9 10 10 10 10 10 10 11 12 11 11 11 11 11 10 10 10 10 10 10 11 11 11 10 10 10 10 11 11 11 11 11 11 12 12 12 12 12 12 11 12
7 9 10 10 11 11 11 11 11 12 11 11 11 11 11 11 11 11 10 10 10 10 10 10 10 11 11 11 11 12 12 12 13 13 13 13 13 13 13 13 12 12 12
8 9 10 10 11 11 12 12 12 12 12 12 12 12 11 11 12 11 11 11 11 11 11 11 11 11 12 12 12 12 12 12 12 13 13 13 14 14 14 14 13 13 14
8 8 10 10 11 11 12 12 12 12 12 13 12 12 12 12 12 12 12 12 12 12 12 13 12 12 13 13 13 13 14 14 14 14 15 15 15 15 15 15 15 15 15
8 8 9 10 10 11 12 12 12 12 12 13 13 13 13 13 13 13 13 13 13 13 13 13 13 14 14 14 14 14 14 15 15 16 16 16 16 16 16 16 17 17 17
8 9 10 10 11 11 12 12 13 12 12 13 13 13 13 13 14 14 14 14 14 14 14 14 14 14 14 14 15 15 15 16 16 16 17 17 17 17 17 17 18 18 18
8 9 9 10 11 12 12 12 12 12 12 13 13 14 14 15 14 14 14 14 14 14 14 14 15 15 15 15 16 16 16 17 17 17 18 18 18 18 18 19 19 19 19
9 9 10 11 11 12 12 12 12 13 13 13 14 14 15 15 15 15 15 15 16 16 16 16 16 16 17 17 17 17 18 18 18 18 18 19 19 19 20 21 21 22 22
11 11 11 12 12 12 12 12 13 14 14 15 15 15 15 15 15 16 16 17 17 16 17 17 17 17 18 18 18 19 19 19 19 20 20 20 21 21 21 22 23 23 24
13 12 13 13 13 13 13 13 14 14 14 15 15 16 16 16 16 16 17 17 17 17 17 18 18 18 18 18 18 19 20 20 21 21 21 21 22 22 23 24 24 24 25
14 13 13 13 13 14 14 14 14 14 14 14 14 15 15 16 16 16 16 16 17 17 17 17 17 17 18 18 19 20 20 20 21 21 22 22 23 24 24 25 25 26 26
15 14 13 13 13 14 13 14 14 14 14 14 14 15 15 16 16 16 17 17 17 17 18 18 19 19 19 19 20 20 21 21 22 22 23 24 25 25 26 27 27 27 28
15 15 14 14 14 14 14 14 14 14 14 14 15 15 16 17 17 18 18 18 18 18 19 19 19 19 20 20 21 21 22 23 23 24 26 26 26 27 28 28 28 29 30
15 15 14 14 14 14 14 14 15 15 15 15 15 16 17 18 18 19 19 19 19 19 20 20 20 21 21 21 22 23 23 24 25 26 27 28 28 29 29 29 30 31 31
16 16 15 15 15 15 15 15 16 17 16 16 17 17 17 18 19 20 20 20 20 21 21 22 22 22 22 23 24 25 25 26 27 27 28 29 29 30 31 32 32 32 32
18 17 17 17 16 16 16 16 16 17 18 18 19 19 19 20 21 21 21 22 22 23 23 23 24 24 25 26 26 27 27 28 29 30 30 30 31 32 33 34 34 34 34
19 18 18 18 17 18 18 17 18 19 20 20 20 20 21 21 22 22 22 22 23 24 24 24 25 25 26 27 27 28 29 29 30 31 31 32 33 34 34 35 36 35 36
21 20 20 19 18 19 19 19 19 21 22 21 22 22 22 23 23 23 23 23 24 25 25 25 26 27 27 28 28 29 30 31 32 32 32 33 34 34 35 36 36 36 36
22 22 21 21 20 20 21 21 21 22 23 23 24 24 24 24 24 25 25 25 25 26 26 26 27 28 29 30 30 30 30 31 31 32 33 34 34 35 35 36 36 36 36
23 23 23 22 22 23 23 23 23 24 24 24 25 25 26 26 26 26 27 27 26 27 27 27 28 28 29 30 30 31 31 32 32 33 33 34 34 35 36 36 36 37 37
Wind_Direction
244 244 245 246 247 251 252 253 257 257 257 260 263 265 267 268 266 266 270 270 269 272 278 286 291 292 297 303 301 298 302 305 304 303 304 305 307 308 306 302 300 297 295
245 242 246 246 246 248 251 252 254 259 260 263 264 267 269 266 266 266 267 269 273 274 275 280 285 287 292 298 300 298 300 304 302 302 305 309 310 311 309 304 301 298 295
252 247 244 242 242 244 249 252 254 256 260 265 264 265 267 269 266 264 265 267 268 271 272 278 282 285 288 293 299 300 298 298 298 300 303 306 310 313 311 311 305 301 295
249 249 247 243 244 246 249 252 254 256 261 261 259 264 266 268 265 263 263 263 268 272 270 274 279 281 284 291 298 300 298 298 297 299 299 300 304 307 305 304 303 300 296
250 248 246 246 245 246 250 254 255 257 260 259 259 262 266 266 263 261 261 263 268 272 271 272 277 279 281 285 292 298 298 297 295 296 296 295 297 299 300 300 299 297 295
247 249 252 253 248 244 247 254 255 257 260 258 259 261 263 264 260 260 262 265 268 270 272 273 274 276 277 282 288 291 292 291 291 293 295 294 295 297 298 299 300 298 295
247 252 254 254 252 248 248 250 256 258 258 255 256 260 262 262 261 262 263 267 270 272 274 274 274 276 278 282 285 287 288 287 289 291 293 295 294 294 297 298 298 297 296
249 251 254 255 252 248 251 255 259 259 253 253 257 259 261 261 260 263 265 267 272 274 275 277 277 278 279 280 282 283 285 285 287 288 289 292 292 292 295 296 296 295 294
253 249 252 253 251 248 251 256 261 258 251 254 259 261 261 261 262 264 266 270 272 273 275 277 277 279 279 279 282 285 286 286 287 288 289 290 292 292 293 293 293 292 293
261 256 256 257 253 250 250 255 259 256 252 254 256 259 260 261 263 264 265 269 271 273 273 274 275 277 278 278 280 282 286 288 287 288 289 290 291 292 292 292 291 291 292
263 261 257 257 255 255 255 254 259 257 254 255 256 260 260 259 260 262 264 266 269 269 272 274 275 276 278 279 281 282 285 287 288 288 289 290 290 291 291 291 291 291 291
262 263 261 257 255 257 258 256 260 257 258 256 255 259 261 261 261 261 263 266 268 270 272 273 274 275 277 280 282 283 285 286 287 288 290 291 292 290 290 290 290 291 291
265 264 265 264 260 258 259 260 257 256 257 257 257 258 261 263 264 263 266 267 268 271 273 273 273 275 277 279 281 283 285 285 286 288 290 292 291 290 290 291 290 291 290
272 269 265 264 265 262 262 261 258 258 259 259 259 261 263 264 263 264 269 272 272 273 274 275 276 275 276 278 281 282 283 285 287 288 290 291 291 291 291 291 290 290 289
274 270 266 267 267 263 261 263 263 261 262 261 260 261 264 265 266 268 271 274 274 275 275 275 276 276 277 278 282 283 284 286 287 288 289 289 289 289 290 290 290 289 289
272 269 266 267 267 264 264 266 266 264 265 265 263 263 265 267 268 271 273 275 276 277 277 277 278 279 278 280 282 284 285 286 287 288 289 289 290 290 291 292 291 290 289
272 270 268 264 263 263 264 266 267 267 268 267 266 266 265 267 268 270 271 273 277 279 280 279 278 279 280 281 283 284 285 286 287 288 288 289 290 290 291 291 290 289 289
277 274 271 266 263 264 267 265 264 265 268 267 267 268 267 266 266 268 271 274 277 278 279 279 279 280 282 282 285 286 287 288 288 289 289 290 290 290 290 290 290 290 290
273 272 271 270 267 266 268 266 265 264 265 266 269 269 270 268 268 270 273 275 277 279 279 280 281 282 284 285 286 287 288 289 289 290 291 291 291 291 291 290 290 290 290
272 272 272 272 269 266 266 266 266 267 266 267 270 271 271 271 272 273 274 275 277 279 279 281 282 283 284 285 287 288 289 289 290 291 292 292 291 292 292 291 291 291 291
271 272 271 271 269 268 268 269 270 269 267 267 270 272 273 273 274 275 275 275 277 279 280 281 282 283 283 285 287 288 288 289 290 291 291 291 291 291 292 292 291 291 290
269 269 269 269 268 269 270 270 270 267 267 270 271 272 274 274 275 275 276 277 279 281 282 283 284 283 283 285 286 288 288 289 291 292 292 291 291 292 292 293 292 291 291
266 265 266 268 268 268 270 270 269 269 268 270 271 272 274 276 275 276 277 279 281 282 283 284 285 285 286 287 287 288 289 290 292 293 293 292 291 291 292 292 291 290 290
265 265 265 266 267 269 270 270 270 268 268 269 271 272 274 275 275 275 278 280 282 283 282 283 284 285 287 288 289 289 290 291 291 292 292 292 292 293 294 293 291 290 289
263 265 263 263 266 267 269 270 271 270 270 271 272 272 272 273 274 276 279 281 282 282 283 283 285 286 286 287 288 289 291 292 292 292 292 293 293 293 294 293 292 291 290
263 262 263 264 266 267 269 270 272 272 273 275 275 272 272 274 276 278 280 280 280 282 283 283 284 286 288 289 290 290 291 293 294 295 295 295 295 295 294 293 292 292 291